Location: Dos Palmas
(32.4468°N, 116.8732°W)
Time: 11:36:02
(UTC+00:00)

GPS 2-04 Rocket1 - Pass Details

Date: 20 June 2021
Orbit: 415 x 539 km, 35.6° (Epoch: 30 July)

Event Time Altitude Azimuth Distance (km) Brightness Sun altitude
Exits shadow 11:39:34 - 286° (WNW) 2,211 5.6 -11.6°
Reaches altitude 10° 11:40:49 10° 288° (WNW) 1,714 5.0 -11.4°
Maximum altitude 11:44:45 74° 13° (NNE) 511 2.8 -10.8°
Drops below altitude 10° 11:48:30 10° 100° (E) 1,635 5.9 -10.1°
Sets 11:50:38 0° 102° (ESE) 2,487 6.9 -9.8°
